Vorticity
nan nan nan nan nan nan nan nan nan nan nan nan nan nan nan nan nan nan nan nan nan nan nan nan nan nan nan nan nan nan nan nan nan nan nan nan nan nan nan nan nan nan nan nan nan nan nan nan nan nan nan nan nan nan nan nan nan nan nan nan nan nan nan nan nan nan nan nan nan
nan 18 20 21 19 14 11 8 10 12 13 12 11 11 11 11 10 9 10 11 12 11 10 8 7 9 10 12 13 12 10 9 8 8 6 6 10 13 15 16 18 20 20 19 17 16 16 14 10 10 10 10 10 10 10 12 13 12 12 10 8 8 8 8 8 8 8 8 nan
nan 14 15 16 16 15 12 10 11 12 12 12 12 12 12 11 10 10 10 11 12 12 11 9 6 6 8 12 13 12 11 10 9 9 8 5 7 10 13 13 12 13 15 16 18 19 18 15 12 11 11 11 10 9 8 10 13 13 11 9 9 9 9 9 9 9 9 9 nan
nan 12 12 13 16 16 15 13 12 11 10 10 10 10 11 11 10 9 9 9 9 10 11 11 7 6 6 9 11 12 12 11 10 9 8 7 6 8 11 12 11 10 11 12 15 16 16 15 12 10 8 9 8 7 7 7 10 11 9 8 9 10 10 9 9 9 10 10 nan
nan 12 13 12 12 13 13 14 13 12 10 10 10 10 10 10 9 9 8 8 8 10 11 12 10 8 7 7 8 9 8 9 9 8 7 7 6 7 8 10 11 10 9 9 11 12 13 15 13 9 7 6 7 6 7 9 11 10 10 8 8 9 9 9 9 9 8 9 nan
nan 13 14 13 12 12 12 12 12 12 12 13 14 14 13 12 12 12 12 10 9 9 9 8 9 8 7 7 6 7 6 7 8 9 8 7 6 5 6 7 10 11 9 8 9 11 12 14 13 9 7 7 6 7 8 11 12 11 10 9 8 9 9 9 8 8 8 8 nan
nan 13 13 13 13 14 14 13 10 11 12 12 13 14 15 14 14 13 13 11 8 7 6 6 8 9 8 7 7 7 8 8 8 8 8 7 7 7 7 7 8 10 11 10 11 11 12 12 12 9 8 8 6 6 9 13 13 12 11 9 8 8 9 9 9 9 9 9 nan
nan 10 11 11 11 12 13 13 12 12 12 12 10 10 11 11 11 10 9 9 9 9 8 8 9 10 10 9 8 8 7 8 8 7 8 7 7 8 7 7 7 8 9 10 11 12 13 12 11 10 9 9 8 7 8 12 14 13 11 9 9 9 9 9 10 10 11 11 nan
nan 7 8 9 10 10 10 11 13 14 14 13 10 9 8 8 7 7 7 7 9 9 10 9 8 9 9 9 9 8 7 6 7 8 9 8 7 8 8 6 6 7 6 7 8 10 13 14 12 11 11 11 10 10 9 10 13 12 10 8 8 9 10 9 10 10 11 11 nan
nan 7 7 7 9 10 9 9 10 10 10 9 8 8 8 9 8 8 9 9 10 10 11 10 8 8 7 7 8 8 8 7 7 7 9 8 8 8 8 8 7 8 7 7 6 7 10 12 12 11 12 11 10 10 9 10 11 11 9 9 9 10 9 9 10 10 10 9 nan
nan 9 8 8 8 8 8 7 6 6 6 6 7 8 9 9 11 12 13 13 11 11 11 11 9 8 7 7 8 9 9 9 8 8 7 8 8 8 8 9 8 8 8 9 8 8 9 11 11 11 11 10 7 7 8 10 10 10 10 11 11 10 8 8 9 9 8 7 nan
nan 8 9 9 7 7 7 7 6 6 7 8 8 8 8 9 11 12 12 12 10 8 8 9 10 9 9 9 9 9 9 10 9 8 7 7 7 7 8 8 7 8 8 9 10 10 10 11 11 11 10 9 7 7 9 10 9 10 10 11 11 9 8 8 9 10 9 8 nan
nan 8 8 7 7 6 7 7 7 7 8 10 9 8 8 8 9 9 9 8 8 7 7 8 8 9 10 11 11 11 11 10 10 10 9 8 7 7 7 7 7 7 8 9 10 11 11 11 11 11 10 9 9 10 10 10 9 9 9 9 10 9 8 8 9 9 9 9 nan
nan 9 9 8 8 7 7 8 7 8 8 9 8 8 7 7 7 8 8 7 8 8 8 7 7 9 11 12 12 12 12 11 11 11 11 10 9 9 8 8 8 8 8 9 10 11 11 11 10 10 10 10 10 10 9 9 9 9 8 9 9 8 8 8 8 8 8 9 nan
nan 10 11 11 10 9 9 8 7 7 7 7 8 8 8 6 7 8 9 9 8 8 8 9 8 8 9 10 11 11 11 10 10 10 9 9 9 9 9 9 9 10 10 10 9 9 9 9 9 9 9 9 8 8 8 9 9 9 9 8 8 8 7 7 8 8 8 8 nan
nan 11 11 12 11 11 10 9 8 7 7 8 9 9 9 8 7 8 10 10 9 9 10 10 9 8 6 7 8 8 8 8 8 8 8 8 8 9 9 9 9 10 11 10 9 9 9 8 8 8 8 8 8 7 7 8 8 8 8 8 7 7 7 7 7 8 8 8 nan
nan 10 11 11 11 12 12 12 12 11 10 10 10 10 10 10 9 9 10 11 11 11 11 11 11 9 8 7 7 7 7 7 7 7 7 8 8 8 8 8 9 9 10 9 9 8 8 8 8 8 8 8 8 7 7 7 7 6 6 7 7 7 7 7 7 8 8 8 nan
nan 9 9 10 10 11 12 13 13 12 11 10 10 11 11 12 11 10 9 10 12 12 11 10 11 10 10 10 10 9 7 7 8 8 8 8 8 8 8 8 9 9 9 8 8 7 7 8 8 8 8 7 7 7 7 7 7 6 6 7 7 7 7 7 8 8 8 7 nan
nan 8 8 9 9 9 9 10 11 10 10 9 10 11 11 12 12 11 10 9 10 10 10 10 10 10 9 10 11 11 9 7 7 8 8 8 8 8 8 8 9 8 8 8 7 7 7 7 7 8 8 8 7 7 7 7 7 6 7 7 7 7 7 7 7 8 8 7 nan
nan 8 8 8 9 8 8 8 9 10 10 9 9 10 10 10 10 10 10 9 9 9 10 10 10 9 9 9 10 10 10 7 6 7 8 7 7 8 8 8 8 8 8 7 7 6 6 7 7 7 8 7 7 7 7 7 7 7 7 8 7 7 7 7 8 8 8 8 nan
nan 8 9 9 9 9 9 9 9 9 9 9 8 9 9 9 9 9 9 9 9 9 9 9 9 9 9 8 9 10 10 8 6 7 7 7 7 7 8 8 8 9 8 7 6 6 7 7 7 7 7 7 7 7 7 7 7 7 8 8 7 7 7 8 8 8 8 8 nan
nan 8 8 8 9 9 9 9 9 8 8 8 8 8 8 8 8 8 8 8 8 8 7 7 7 8 8 8 9 9 10 9 7 8 8 8 7 7 8 8 8 9 8 7 6 6 7 8 8 8 8 7 7 7 7 8 7 8 8 7 8 8 9 9 9 9 8 8 nan
nan 8 7 7 8 9 9 9 9 8 8 8 8 8 8 8 8 8 8 9 9 8 8 7 5 6 8 8 9 9 10 10 8 8 8 9 8 8 9 9 8 9 9 7 6 7 9 10 9 9 9 8 7 8 8 8 8 8 7 8 8 9 10 10 9 8 8 8 nan
nan 10 10 8 7 9 9 9 8 8 8 8 8 8 8 8 8 7 7 8 9 9 10 10 7 6 7 8 8 9 9 9 9 8 8 9 9 10 11 10 9 9 8 5 3 6 10 12 10 10 9 9 9 8 8 8 8 8 7 8 9 9 10 9 8 8 8 8 nan
nan 11 12 11 9 9 9 9 9 8 8 8 8 8 8 8 8 8 7 7 8 8 9 10 9 8 7 7 7 8 8 8 8 8 8 8 9 10 12 11 10 9 7 1 -1 4 10 12 11 10 10 9 9 9 9 8 8 8 8 8 8 9 9 9 9 8 8 9 nan
nan 9 10 10 10 9 9 9 9 9 9 8 8 8 9 8 8 8 8 8 8 8 8 8 8 8 8 7 7 8 9 8 7 7 8 8 9 10 12 12 10 8 4 -2 -1 4 8 10 11 12 12 10 9 9 9 8 7 7 7 8 8 8 8 8 8 8 9 9 nan
nan 8 9 9 9 9 9 9 9 8 8 8 8 9 9 10 9 8 8 8 8 8 8 8 8 8 8 6 5 8 10 9 7 7 8 8 8 9 11 12 10 7 1 -2 2 6 8 8 9 10 12 12 10 9 9 8 7 8 9 10 9 8 8 8 8 9 9 9 nan
nan 9 9 9 9 9 9 9 8 8 8 8 9 9 9 9 9 9 8 8 9 10 9 8 8 9 8 5 4 6 8 10 9 8 7 7 8 9 10 10 8 4 -0 -0 4 7 8 8 8 8 10 12 12 11 11 10 10 11 11 11 11 10 10 10 10 9 9 9 nan
nan 9 8 8 8 8 8 8 8 8 8 8 9 9 9 8 8 8 8 8 10 11 11 10 9 9 8 6 6 6 7 9 9 8 7 7 8 8 8 8 7 4 1 3 6 7 7 8 8 8 9 11 13 12 11 11 11 11 11 11 10 9 9 9 7 7 8 9 nan
nan 8 8 8 8 8 8 8 9 9 10 8 8 8 9 8 8 8 8 8 9 10 11 10 9 8 8 8 8 8 8 8 8 7 7 7 7 7 7 7 7 5 3 4 6 6 7 7 8 8 9 11 12 12 11 9 9 9 10 9 8 7 7 7 7 7 7 7 nan
nan 9 8 8 8 8 8 8 9 9 10 10 8 8 8 8 7 8 8 8 8 8 8 9 8 8 8 9 9 8 8 8 7 7 6 7 7 7 7 8 8 8 5 4 4 5 6 7 9 9 9 11 13 12 10 8 9 9 8 7 6 6 7 9 9 8 7 5 nan
nan 8 8 8 8 8 8 8 8 8 8 9 8 8 7 7 7 7 8 7 7 7 7 7 7 7 8 8 8 8 8 8 8 7 6 7 7 8 9 10 11 10 7 3 3 4 6 8 9 10 9 12 14 12 10 9 10 10 9 7 7 7 7 6 7 7 7 7 nan
nan 8 8 8 7 7 7 7 7 7 7 7 7 7 7 7 7 7 8 8 7 6 6 7 7 7 7 7 7 8 9 9 8 7 7 7 8 8 10 13 14 11 6 2 2 4 7 9 10 10 9 13 16 15 13 11 11 10 9 9 9 9 8 6 5 6 8 8 nan
nan 7 7 7 7 7 7 7 7 7 7 6 6 6 7 7 7 7 8 8 7 7 7 7 7 8 8 8 8 8 9 9 7 7 8 8 9 9 11 13 11 7 3 1 3 5 8 10 10 10 10 16 19 16 13 11 10 9 7 7 8 8 8 8 8 8 8 9 nan
nan 7 7 7 6 6 6 6 6 6 6 6 6 6 6 7 7 7 8 8 8 8 8 8 8 8 8 8 9 8 8 8 8 8 8 9 9 9 10 10 7 4 2 3 5 6 8 9 9 10 13 19 20 16 13 13 12 10 8 8 8 8 9 9 9 10 10 10 nan
nan 7 6 6 6 6 6 6 6 6 6 6 6 6 7 7 8 8 8 8 9 9 9 9 9 9 8 9 9 9 8 8 8 8 9 8 8 9 9 9 7 5 5 6 6 7 8 8 9 11 16 21 18 13 12 14 14 12 11 11 10 10 10 11 11 11 11 11 nan
nan 8 7 6 6 6 6 6 6 6 6 6 7 7 8 9 9 9 9 9 9 9 9 9 8 8 8 8 9 8 8 8 8 8 9 8 8 8 9 8 8 7 7 6 6 6 7 8 9 12 17 19 14 12 12 13 12 12 12 12 12 11 12 13 14 13 12 10 nan
nan 8 8 7 6 6 7 7 7 6 6 7 8 9 10 10 10 9 9 9 8 8 8 8 8 8 7 8 9 8 8 8 8 9 9 9 8 8 7 8 9 8 6 5 5 6 7 8 10 12 16 15 12 12 13 12 10 9 10 12 12 12 13 14 14 14 12 9 nan
nan 8 8 7 7 8 8 8 8 8 7 8 9 9 10 11 10 9 9 9 8 8 8 8 8 8 8 9 10 9 9 9 10 10 9 9 8 7 7 9 9 7 5 4 5 7 8 9 10 12 15 16 14 14 13 11 9 9 10 11 11 12 13 13 12 11 11 10 nan
nan 9 9 8 8 9 9 9 9 10 9 8 9 9 10 10 10 9 9 9 8 9 10 9 7 8 8 9 10 10 9 9 10 10 9 8 8 8 9 10 8 6 6 6 7 8 9 10 11 12 16 17 14 13 12 11 10 10 10 10 11 12 14 12 11 10 9 11 nan
nan nan nan nan nan nan nan nan nan nan nan nan nan nan nan nan nan nan nan nan nan nan nan nan nan nan nan nan nan nan nan nan nan nan nan nan nan nan nan nan nan nan nan nan nan nan nan nan nan nan nan nan nan nan nan nan nan nan nan nan nan nan nan nan nan nan nan nan nan
CAPE
180 159 159 195 101 101 6 1 1 1 1 1 1 1 1 1 2 3 3 3 3 3 3 4 5 4 4 4 3 3 2 1 1 1 1 1 1 1 1 1 0 0 0 1 1 1 2 2 3 3 3 5 8 12 12 12 8 10 10 15 16 22 22 25 23 23 13 7 5
7 2 2 1 1 1 1 1 1 1 1 2 2 2 2 2 3 3 3 3 3 3 3 4 4 3 3 4 3 3 2 2 1 1 1 1 0 1 1 1 1 0 0 0 2 2 2 4 4 4 4 6 9 10 10 12 15 15 15 15 19 27 27 30 26 26 16 6 4
2 2 2 2 1 1 1 2 2 2 2 2 2 2 2 2 3 3 3 3 4 5 5 3 4 4 4 3 3 3 3 2 2 1 1 0 0 1 1 1 1 1 1 0 0 0 0 2 3 3 2 3 2 1 1 3 9 10 10 10 15 19 19 23 20 20 7 3 1
1 1 1 2 2 2 2 2 2 2 2 2 2 3 3 2 3 3 3 3 5 4 4 3 2 3 3 2 2 2 3 2 2 1 1 0 0 0 0 1 0 0 0 1 1 1 1 1 2 2 1 1 1 1 1 1 4 8 8 8 16 16 16 11 5 5 2 1 1
2 2 2 2 3 3 2 3 3 3 2 3 2 2 2 3 2 3 3 3 3 2 2 2 2 1 1 2 1 1 2 2 3 1 1 1 0 0 0 0 1 1 1 1 0 0 1 1 1 1 1 1 0 0 0 1 3 7 7 16 13 11 11 7 5 5 4 4 2
2 2 2 2 2 2 2 2 3 3 2 2 2 2 2 3 3 3 3 2 2 3 3 3 2 2 2 2 1 1 1 2 1 1 1 1 0 nan nan nan nan 0 0 0 0 0 0 1 2 2 1 1 1 1 1 2 4 10 10 5 3 3 3 3 3 3 4 4 2
1 1 1 2 2 2 2 2 2 2 1 1 2 2 2 3 3 3 3 2 3 3 3 3 3 2 2 2 1 1 2 2 1 1 1 1 nan nan nan nan nan nan nan nan nan nan nan 0 1 1 1 1 2 0 0 0 2 2 2 0 nan 0 0 2 1 1 2 2 3
2 1 1 2 3 3 1 3 2 2 2 2 1 3 3 3 3 3 3 3 2 3 3 2 3 2 2 2 2 2 2 1 1 0 0 nan nan nan nan nan nan nan nan nan nan nan nan nan nan nan nan nan nan nan nan nan nan nan nan nan nan nan nan 3 2 2 nan 0 2
2 3 3 2 2 2 1 2 2 2 2 3 2 4 4 4 3 3 3 3 3 3 3 3 2 1 1 1 1 1 1 1 0 0 0 nan nan nan nan nan nan nan nan nan nan nan nan nan nan nan nan nan nan nan nan nan nan nan nan nan nan nan nan nan nan nan nan nan nan
2 2 2 2 2 2 2 2 2 2 3 3 3 4 4 3 3 3 3 3 3 3 3 3 1 0 0 0 0 0 0 0 0 nan nan nan nan nan nan nan nan nan nan nan nan nan nan nan nan nan nan nan nan nan nan nan nan nan nan nan nan nan nan nan nan nan nan nan nan
1 2 2 2 3 3 1 2 2 2 1 2 1 1 1 1 2 1 1 nan nan nan nan nan nan nan nan nan nan nan nan 0 nan nan nan nan nan nan nan nan nan nan nan nan nan nan nan nan nan nan nan nan nan nan nan nan nan nan nan nan nan nan nan nan nan nan nan nan nan
1 1 1 2 1 1 1 1 1 1 1 0 nan 0 0 nan nan nan nan nan nan nan nan nan nan nan nan nan nan nan nan nan nan nan nan nan nan nan nan nan nan nan nan nan nan nan nan nan nan nan nan nan nan nan nan nan nan nan nan nan nan nan nan nan nan nan nan nan nan
0 0 0 0 0 0 1 1 1 1 1 0 nan nan nan nan nan nan nan nan nan nan nan nan nan nan nan nan nan nan nan nan nan nan nan nan nan nan nan nan nan nan nan nan nan nan nan nan nan nan nan nan nan nan nan nan nan nan nan nan nan nan nan nan nan nan nan nan nan
nan nan nan nan 0 0 0 1 2 2 0 nan nan nan nan nan nan nan nan nan nan nan nan nan nan nan nan nan nan nan nan nan nan nan nan nan nan nan nan nan nan nan nan nan nan nan nan nan nan nan nan nan nan nan nan nan nan nan nan nan nan nan nan nan nan nan nan nan nan
nan nan nan nan nan nan 0 nan nan nan nan nan nan nan nan nan nan nan nan nan nan nan nan nan nan nan nan nan nan nan nan nan nan nan nan nan nan nan nan nan nan nan nan nan nan nan nan nan nan nan nan nan nan nan nan nan nan nan nan nan nan nan nan nan nan nan nan nan nan
nan nan nan nan nan nan nan nan nan nan nan nan nan nan nan nan nan nan nan nan nan nan nan nan nan nan nan nan nan nan nan nan nan nan nan nan nan nan nan nan nan nan nan nan nan nan nan nan nan nan nan nan nan nan nan nan nan nan nan nan nan nan nan nan nan nan nan nan nan
nan nan nan nan nan nan nan nan nan nan nan nan nan nan nan nan nan nan nan nan nan nan nan nan nan nan nan nan nan nan nan nan nan nan nan nan nan nan nan nan nan nan nan nan nan nan nan nan nan nan nan nan nan nan nan nan nan nan nan nan nan nan nan nan nan nan nan nan nan
nan nan nan nan nan nan nan nan nan nan nan nan nan nan nan nan nan nan nan nan nan nan nan nan nan nan nan nan nan nan nan nan nan nan nan nan nan nan nan nan nan nan nan nan nan nan nan nan nan nan nan nan nan nan nan nan nan nan nan nan nan nan nan nan 0 0 nan 0 1
nan nan nan nan nan nan nan nan nan nan nan nan nan nan nan nan nan nan nan nan nan nan nan nan nan nan nan nan nan nan nan nan nan nan nan nan nan nan nan nan nan nan nan nan nan nan nan nan nan nan nan nan nan nan nan nan nan nan nan nan nan nan nan nan nan nan nan nan nan
nan nan nan nan nan nan nan nan nan nan nan nan nan nan nan nan nan nan nan nan nan nan nan nan nan nan nan nan nan nan nan nan nan nan nan nan nan nan nan nan nan nan nan nan nan nan nan nan nan nan nan nan nan nan nan nan nan nan nan nan nan nan nan nan nan nan nan nan nan
nan nan nan nan nan nan nan nan nan nan nan nan nan nan nan nan nan nan nan nan nan nan nan nan nan nan nan nan nan nan nan nan nan nan nan nan nan nan nan nan nan nan nan nan nan nan nan nan nan nan nan nan nan nan nan nan nan nan nan nan nan nan nan nan nan nan nan nan nan
nan nan nan nan nan nan nan nan nan nan nan nan nan nan nan nan nan nan nan nan nan nan nan nan nan nan nan nan nan nan nan nan nan nan nan nan nan nan nan nan nan nan nan nan nan nan nan nan nan nan nan nan nan nan nan nan nan nan nan nan nan nan nan nan nan nan nan nan nan
nan nan nan nan nan nan nan nan nan nan nan nan nan nan nan nan nan nan nan nan nan nan nan nan nan nan nan nan nan nan nan nan nan nan nan nan nan nan nan nan nan nan nan nan nan nan nan nan nan nan nan nan nan nan nan nan nan nan nan nan nan nan nan nan nan nan 0 nan nan
nan nan nan nan nan nan nan nan nan nan nan nan nan nan nan nan nan nan nan nan nan nan nan nan nan nan nan nan nan nan nan nan nan nan nan nan nan nan nan nan nan nan nan nan nan nan nan nan nan nan nan nan nan nan nan nan nan nan nan nan nan nan nan nan nan nan nan nan nan
nan nan nan nan nan nan nan nan nan nan nan nan nan nan nan nan nan nan nan nan nan nan nan nan nan nan nan nan nan nan nan nan nan nan nan nan nan nan nan nan nan nan nan nan nan nan nan nan nan nan nan nan nan nan nan nan nan nan nan nan nan nan nan nan nan nan nan nan nan
nan nan nan nan nan nan nan nan nan nan nan nan nan nan nan nan nan nan nan nan nan nan nan nan nan nan nan nan nan nan nan nan nan nan nan nan nan nan nan nan nan nan nan nan nan nan nan nan nan nan nan nan nan nan nan nan nan nan nan nan nan nan nan nan nan nan nan nan nan
nan nan nan nan nan nan nan nan nan nan nan nan nan nan nan nan nan nan nan nan nan nan nan nan nan nan nan nan nan nan nan nan nan nan nan nan nan nan nan nan nan nan nan nan nan nan nan nan nan nan nan nan nan nan nan nan nan nan nan nan nan nan nan nan nan nan nan nan nan
nan nan nan nan nan nan nan nan nan nan nan nan nan nan nan nan nan nan nan nan nan nan nan nan nan nan nan nan nan nan nan nan nan nan nan nan nan nan nan nan nan nan nan nan nan nan nan nan nan nan nan nan nan nan nan nan nan nan nan nan nan nan nan nan nan nan nan nan nan
nan nan nan nan nan nan nan nan nan nan nan nan nan nan nan nan nan nan nan nan nan nan nan nan nan nan nan nan nan nan nan nan nan nan nan nan nan nan nan nan nan nan nan nan nan nan nan nan nan nan 0 0 nan nan nan nan nan nan nan nan nan nan nan nan nan nan nan nan nan
nan nan nan nan nan nan nan nan nan nan nan nan nan nan nan nan nan nan nan nan nan nan nan nan nan nan nan nan nan nan nan nan nan nan nan nan nan nan nan nan nan nan nan nan nan nan nan nan 0 0 1 1 0 nan nan nan nan nan nan nan nan nan nan nan nan nan nan nan nan
nan nan nan nan nan nan nan nan nan nan nan nan nan nan nan nan nan nan nan nan nan nan nan nan nan nan nan nan nan nan nan nan nan nan nan nan nan nan nan nan nan nan nan nan nan nan nan 0 1 1 1 1 0 nan nan nan nan nan nan nan nan nan nan nan nan nan nan nan nan
nan nan nan nan nan nan nan nan nan nan nan nan nan nan nan nan nan nan nan nan nan nan nan nan nan nan nan nan nan nan nan nan nan nan nan nan nan nan nan nan nan nan nan nan nan nan 0 1 1 1 1 2 0 nan nan nan nan nan nan nan nan nan nan nan nan nan nan nan nan
nan nan nan nan nan nan nan nan nan nan nan nan nan nan nan nan nan nan nan nan nan nan nan nan nan nan nan nan nan nan nan nan nan nan nan nan nan nan nan nan nan nan nan nan nan nan 0 0 1 1 1 3 0 nan nan nan nan nan nan nan nan nan nan 0 nan nan nan nan nan
nan nan nan nan nan nan nan nan nan nan nan nan nan nan nan nan nan nan nan nan nan nan nan nan nan nan nan nan nan nan nan nan nan nan nan nan nan nan nan nan nan nan nan nan nan nan nan 0 0 0 1 2 1 nan nan nan nan nan nan nan nan 0 0 0 0 0 1 0 nan
0 nan nan nan nan nan nan nan nan nan nan nan nan nan nan nan nan nan nan nan nan nan nan nan nan nan nan nan nan nan nan nan nan nan nan nan nan nan nan nan nan nan nan nan nan nan nan nan 0 0 1 1 3 nan nan nan nan nan nan nan nan nan nan 0 1 1 1 0 nan
nan nan nan nan nan nan nan nan nan nan nan nan nan nan nan nan nan nan nan nan nan nan nan nan nan nan nan nan nan nan nan nan nan nan nan nan nan nan nan nan nan nan nan nan nan nan nan 0 0 0 1 1 1 nan nan nan nan nan nan nan nan 0 0 0 1 1 1 0 0
nan nan nan nan nan nan nan nan nan nan nan nan nan nan nan nan nan nan nan nan nan nan nan nan nan nan nan nan nan nan nan nan nan nan nan nan nan nan nan nan nan nan nan nan nan nan nan 0 1 1 1 0 0 nan nan nan nan nan nan nan nan nan nan 0 1 1 1 1 2
nan nan nan nan nan nan nan nan nan nan nan nan nan nan nan nan nan nan nan nan nan nan nan nan nan nan nan nan nan nan nan nan nan nan nan nan nan nan nan nan nan nan nan nan nan nan nan 0 1 1 2 nan nan nan nan nan nan nan nan nan nan nan nan 0 1 1 1 3 3
nan nan nan 0 0 0 1 0 1 1 1 nan nan nan nan nan nan nan nan nan nan nan nan nan nan nan nan nan nan nan nan nan nan nan nan nan nan nan nan nan nan nan nan nan nan nan nan 0 1 1 3 nan nan nan nan nan nan nan nan nan nan 0 0 1 3 3 3 5 5
nan 1 1 1 1 1 2 3 2 2 0 nan nan nan nan nan nan nan nan nan nan nan nan nan nan nan nan nan nan nan nan nan nan nan nan nan nan nan nan nan nan nan nan nan nan nan nan 0 2 2 4 0 nan nan nan nan nan 0 0 1 1 3 3 4 6 6 5 5 10
nan 1 1 1 nan nan nan nan nan nan nan nan nan nan nan nan nan nan nan nan nan nan nan nan nan nan nan nan nan nan nan nan nan nan nan nan nan nan nan nan nan nan nan nan nan nan nan 0 3 3 6 0 1 0 0 2 5 5 5 5 6 7 7 7 6 6 6 5 8